FW4704 Weather Reports


Display with metric or nautical units.
time (UTC)temp
F
wind
direction
speed
MPH
gust
MPH
rain 1hr
in
rain 24hr
in
rain mn
in
humidity
%
barometer
mb
20260506144545 57 18 9.0 18.0 0.00 0.00 0.00 86 1010.2
20260506143038 56 294 9.0 21.0 0.00 0.00 0.00 87 1010.1
20260506141532 55 232 9.0 19.0 0.00 0.00 0.00 88 1010.1
20260506140034 55 277 9.0 19.0 0.00 0.00 0.00 88 1010.0
20260506134530 55 257 5.0 16.0 0.00 0.00 0.00 88 1009.9
20260506133031 56 257 7.0 16.0 0.00 0.00 0.00 87 1010.0
20260506131542 56 229 8.0 15.0 0.00 0.00 0.00 88 1009.9
20260506130037 55 263 9.0 18.0 0.00 0.00 0.00 88 1009.8
20260506124522 55 243 10.0 20.0 0.00 0.00 0.00 89 1009.8
20260506123023 54 330 10.0 16.0 0.00 0.00 0.00 89 1009.7
20260506121520 54 300 8.0 19.0 0.00 0.00 0.00 89 1009.7
20260506120021 55 244 9.0 18.0 0.00 0.00 0.00 89 1009.7
20260506114522 54 279 10.0 17.0 0.00 0.00 0.00 89 1009.8
20260506113022 54 249 8.0 21.0 0.00 0.00 0.00 88 1009.8
20260506111517 54 292 11.0 18.0 0.00 0.00 0.00 88 1009.6
20260506110015 54 297 12.0 19.0 0.00 0.00 0.00 88 1009.6
20260506104513 54 269 13.0 21.0 0.00 0.00 0.00 88 1009.7
20260506103016 54 264 7.0 18.0 0.00 0.00 0.00 89 1009.8
20260506101512 53 293 13.0 20.0 0.00 0.00 0.00 89 1009.7
20260506100012 53 242 9.0 22.0 0.00 0.00 0.00 88 1009.6
20260506094510 53 306 10.0 21.0 0.00 0.00 0.00 88 1009.5
20260506093010 53 274 9.0 20.0 0.00 0.00 0.00 88 1009.4
20260506091511 54 264 9.0 18.0 0.00 0.00 0.00 88 1009.3
20260506090006 54 304 8.0 13.0 0.00 0.00 0.00 88 1009.3
20260506084503 53 290 9.0 21.0 0.00 0.00 0.00 88 1009.3
20260506083003 53 267 9.0 22.0 0.00 0.00 0.00 88 1009.0
20260506081558 53 250 6.0 21.0 0.00 0.00 0.00 88 1009.0
20260506073048 52 265 7.0 17.0 0.00 0.00 0.00 88 1008.9
20260506071547 52 293 12.0 18.0 0.00 0.00 0.00 89 1008.8
20260506061535 50 221 5.0 16.0 0.00 0.00 0.00 91 1008.5
20260506044528 48 284 3.0 11.0 0.00 0.00 0.00 90 1008.3
20260506043027 48 261 4.0 12.0 0.00 0.00 0.00 90 1008.4
20260506041526 49 288 7.0 13.0 0.00 0.00 0.00 90 1008.5
20260506040024 49 273 5.0 13.0 0.00 0.00 0.00 90 1008.4
20260506034524 49 316 5.0 12.0 0.00 0.00 0.00 90 1008.4
20260506033021 49 288 4.0 12.0 0.00 0.00 0.00 90 1008.4
20260506031520 49 273 6.0 16.0 0.00 0.00 0.00 90 1008.4
20260506030027 49 293 5.0 15.0 0.00 0.00 0.00 91 1008.5
20260506024533 49 291 6.0 13.0 0.00 0.00 0.00 91 1008.5
20260506023016 49 291 6.0 13.0 0.00 0.00 0.00 91 1008.6
20260506021515 49 281 6.0 11.0 0.00 0.00 0.00 91 1008.6
20260506020014 49 304 6.0 14.0 0.00 0.00 0.00 92 1008.6
20260506014518 49 277 5.0 11.0 0.00 0.00 0.00 92 1008.6
20260506013013 49 277 7.0 12.0 0.00 0.00 0.00 92 1008.6
20260506011512 49 274 5.0 10.0 0.00 0.00 0.00 92 1008.7
20260506010010 49 279 5.0 12.0 0.00 0.00 0.00 92 1008.8
20260506004508 49 304 4.0 10.0 0.00 0.00 0.00 91 1008.8
20260506003013 49 294 4.0 9.0 0.00 0.00 0.00 91 1009.0
20260506001506 49 279 6.0 12.0 0.00 0.00 0.00 91 1009.0
20260506000004 49 285 5.0 11.0 0.00 0.00 0.00 90 1009.1
20260505234503 50 296 9.0 14.0 0.00 0.00 0.00 90 1009.3
20260505233001 50 308 10.0 18.0 0.00 0.00 0.00 91 1009.3
20260505231604 50 288 8.0 13.0 0.00 0.00 0.00 92 1009.2
20260505230101 50 296 8.0 14.0 0.00 0.00 0.00 92 1009.2
20260505224555 50 276 8.0 11.0 0.00 0.00 0.00 92 1009.3
20260505223056 50 305 8.0 14.0 0.00 0.00 0.00 93 1009.4
20260505221552 50 280 5.0 13.0 0.00 0.00 0.00 93 1009.3
20260505220049 50 273 6.0 14.0 0.00 0.00 0.00 93 1009.3
20260505214549 50 288 6.0 15.0 0.00 0.00 0.00 93 1009.4
20260505213055 51 321 7.0 14.0 0.00 0.00 0.00 93 1009.4
20260505211550 51 301 9.0 18.0 0.00 0.00 0.00 93 1009.3
20260505210045 51 298 10.0 16.0 0.00 0.00 0.00 92 1009.3
20260505204544 51 280 13.0 18.0 0.00 0.00 0.00 92 1009.5
20260505203045 51 283 9.0 18.0 0.00 0.00 0.00 92 1009.4
20260505201546 51 261 11.0 21.0 0.00 0.00 0.00 92 1009.3
20260505200043 51 274 12.0 19.0 0.00 0.00 0.00 92 1009.2
20260505194542 51 285 12.0 20.0 0.00 0.00 0.00 92 1009.1
20260505193039 51 284 9.0 15.0 0.00 0.00 0.00 91 1009.1
20260505191545 51 281 11.0 18.0 0.00 0.00 0.00 91 1009.0
20260505190039 52 275 10.0 18.0 0.00 0.00 0.00 90 1008.9
20260505184538 52 313 9.0 18.0 0.00 0.00 0.00 89 1009.0
20260505183040 52 298 13.0 19.0 0.00 0.00 0.00 89 1008.9
20260505181536 53 306 8.0 15.0 0.00 0.00 0.00 89 1008.9
20260505180045 53 257 8.0 16.0 0.00 0.00 0.00 90 1009.0
20260505174539 53 288 9.0 21.0 0.00 0.00 0.00 89 1009.1
20260505173035 53 292 9.0 23.0 0.00 0.00 0.00 89 1009.0
20260505171534 54 296 9.0 18.0 0.00 0.00 0.00 88 1008.9
20260505170033 54 302 11.0 19.0 0.00 0.00 0.00 88 1008.8
20260505164533 54 282 9.0 18.0 0.00 0.00 0.00 88 1008.6
20260505163033 54 251 12.0 20.0 0.00 0.00 0.00 88 1008.8
20260505161528 55 259 11.0 18.0 0.00 0.00 0.00 87 1009.0
20260505153025 57 272 7.0 17.0 0.00 0.00 0.00 85 1009.1
20260505151524 57 301 13.0 18.0 0.00 0.00 0.00 85 1009.1